Theta_e
272 272 272 272 272 271 271 270 271 271 271 270 270 270 270 269 269 269 268 267 267 267 267 267 267 267 267 267 266 266 266 266 266 267 268 266 266 265 265 265 265 266 266 265 266 265 265 264 264 265 265 266 269 270 270 270 271 273 273 274 274 273 273 273 270 267 267 269 269 269 268 268 268 269 266 268 268 269 269 270 270 269 269 269 269
272 272 272 272 271 270 270 270 271 271 270 270 270 270 269 269 268 268 268 267 266 266 266 266 266 266 266 265 265 265 265 265 266 267 266 265 264 265 264 264 264 264 264 263 264 264 264 263 264 264 265 264 265 266 268 268 269 270 270 271 272 271 272 272 271 269 267 268 268 269 268 269 266 269 266 266 266 267 268 269 269 269 268 269 269
272 272 272 271 270 270 270 271 270 270 270 270 269 269 268 268 267 266 266 267 267 267 266 265 265 265 265 265 265 264 264 265 265 265 264 264 263 263 263 263 263 263 263 263 262 263 263 263 262 263 264 264 265 266 267 267 269 268 268 270 269 269 270 271 271 269 267 267 268 267 268 268 267 267 268 267 267 267 266 267 268 268 268 268 267
270 271 270 270 270 270 270 270 269 270 269 270 268 268 268 268 267 266 266 266 265 266 265 264 264 264 264 264 264 264 264 264 264 264 263 263 263 262 262 262 262 262 262 262 262 262 262 262 262 262 264 264 264 265 266 266 267 268 268 269 269 268 269 270 270 270 268 266 266 265 266 266 267 268 268 268 267 266 266 266 267 266 268 268 267
270 270 270 269 269 269 269 269 269 268 268 269 267 267 267 267 267 265 265 265 264 265 265 265 265 264 263 264 264 263 263 263 263 263 263 263 262 262 262 262 261 261 261 261 262 261 261 261 261 261 262 263 264 264 264 263 265 266 267 268 268 268 268 269 268 269 268 266 265 266 266 266 267 268 268 266 267 267 267 266 265 266 266 268 267
270 269 269 269 268 268 268 268 267 267 267 267 266 266 267 265 265 265 264 263 264 264 263 265 264 263 263 263 263 263 263 263 262 262 262 262 263 262 262 262 261 261 261 262 261 262 261 261 261 261 261 261 262 262 262 262 263 264 264 265 267 267 267 267 267 266 266 266 266 265 267 265 267 267 267 266 265 265 266 266 267 266 266 265 266
269 269 269 269 267 268 267 267 267 267 267 267 267 266 264 264 264 264 264 263 263 264 263 263 264 263 263 263 263 262 262 262 262 262 262 262 262 262 261 261 261 261 262 262 262 262 262 262 262 262 262 262 261 261 262 263 263 263 264 264 265 266 266 266 265 265 265 265 265 266 266 267 267 265 267 267 266 265 263 263 264 266 266 265 264
268 268 267 268 267 267 267 267 266 266 266 265 265 264 264 264 263 264 264 263 263 262 262 262 263 263 262 263 263 263 262 262 262 262 262 262 262 261 261 261 261 262 261 262 262 263 263 263 263 263 263 263 263 262 262 263 265 264 264 264 265 265 266 266 266 266 266 265 265 265 266 266 266 267 267 267 265 265 264 262 261 263 263 265 265
267 267 266 267 267 267 266 266 265 265 265 264 264 263 263 263 263 263 264 263 263 263 262 262 262 261 262 262 262 262 262 262 262 262 261 261 261 261 261 261 261 261 261 261 261 261 262 263 263 263 263 263 264 263 263 263 263 264 264 263 264 264 265 266 266 266 266 265 265 266 265 265 264 263 263 263 262 262 263 263 262 263 263 263 265
268 267 267 268 267 265 265 265 264 264 264 264 264 263 264 263 263 263 262 263 263 263 262 261 261 261 261 261 261 261 262 262 262 261 262 262 261 261 261 261 261 261 261 261 260 260 260 261 261 262 262 263 263 263 263 263 263 263 263 263 263 263 264 264 264 265 265 264 263 263 263 263 263 262 262 263 263 264 263 263 261 262 262 263 266
269 268 268 268 266 265 265 264 264 264 264 264 264 263 263 263 263 262 262 262 262 262 262 261 261 262 261 261 261 262 262 262 263 265 265 263 261 261 261 261 260 261 261 260 260 260 260 260 260 260 260 261 262 262 263 263 263 263 263 263 263 262 262 262 262 262 263 263 263 262 262 261 261 262 262 262 263 262 262 261 261 261 260 260 260
270 269 269 266 265 265 265 264 264 264 264 263 263 263 263 263 263 262 263 262 263 263 262 261 261 261 261 261 261 262 263 264 266 268 267 265 262 262 262 261 261 261 260 260 261 260 260 260 260 260 260 259 260 261 261 262 262 262 262 262 262 263 263 262 261 261 261 261 261 261 261 260 260 261 261 260 260 260 261 261 260 259 258 259 260
270 269 267 266 265 266 265 265 264 264 264 263 263 263 262 262 262 262 262 263 263 262 262 261 261 262 261 261 262 263 264 265 267 269 268 266 264 262 262 261 262 260 259 259 259 260 261 260 260 259 259 260 260 259 260 260 260 261 261 261 261 262 262 263 262 261 261 261 260 259 260 259 260 261 260 259 260 258 259 260 259 258 258 258 260
269 268 266 266 265 265 264 264 264 263 263 263 263 262 262 262 263 264 263 263 262 262 262 262 262 261 261 261 262 263 264 265 268 270 268 267 265 262 259 259 260 259 258 258 259 259 260 261 261 260 260 260 260 259 260 260 260 259 259 259 260 260 261 262 262 262 261 260 260 259 259 261 260 261 261 260 258 258 257 257 258 257 257 257 259
269 268 266 265 265 264 264 264 263 263 262 262 262 262 262 262 262 263 265 264 263 263 263 263 262 262 262 262 263 264 265 266 269 270 269 267 265 261 259 259 260 259 258 258 258 258 258 259 260 260 260 261 261 259 259 259 259 259 259 259 259 260 260 260 262 262 262 262 261 261 261 262 262 262 260 259 257 257 257 256 256 256 255 256 257
269 267 266 265 264 264 264 263 263 262 262 262 261 262 262 262 262 263 264 265 265 264 264 263 262 262 262 262 262 264 266 268 269 270 269 268 264 260 260 259 259 259 258 258 259 259 259 260 260 260 260 261 261 260 260 260 259 259 258 258 259 259 259 260 263 263 263 263 262 262 262 262 263 263 261 259 258 257 258 258 256 256 257 260 262
267 266 265 265 264 264 263 263 263 262 262 261 261 261 262 261 262 265 263 264 264 264 263 263 263 263 262 262 262 264 266 267 269 270 269 267 263 261 260 261 260 258 258 258 259 259 259 258 259 260 260 260 261 262 262 260 259 258 258 258 258 259 260 258 260 261 262 263 263 263 263 262 262 262 263 262 260 257 257 259 259 257 258 258 260
267 265 265 264 263 262 263 263 263 263 262 262 262 262 263 264 263 264 264 263 263 263 263 263 263 263 263 263 263 264 266 268 269 270 268 267 262 261 262 261 259 259 258 258 260 260 259 259 259 259 259 260 261 262 264 262 260 259 258 258 258 258 259 258 257 258 259 260 260 260 259 258 257 257 258 259 258 256 255 256 255 256 257 258 257
265 264 264 263 262 262 262 263 263 263 263 263 263 263 263 263 264 264 263 264 263 264 264 263 264 264 264 263 264 265 266 268 269 269 268 266 262 261 262 262 260 260 260 259 260 261 260 260 259 259 259 260 261 263 265 263 261 260 259 259 259 258 259 257 257 257 256 256 257 255 256 256 254 254 254 254 255 254 254 254 256 256 256 256 256
265 264 263 262 262 262 263 262 263 263 263 263 263 263 264 264 264 264 263 264 264 264 264 264 263 264 265 265 265 266 266 268 268 268 267 265 263 262 263 262 260 259 260 261 260 260 260 260 260 260 260 261 262 264 266 264 261 260 260 260 259 258 259 257 256 256 255 255 255 254 254 254 254 255 255 254 254 254 256 255 255 255 255 255 255
263 263 263 262 262 262 263 263 262 263 263 263 262 262 264 264 263 263 263 264 263 263 262 262 262 263 264 264 265 266 266 267 267 267 266 265 263 261 262 261 261 261 261 260 261 261 261 261 262 260 260 261 262 264 265 263 261 259 259 260 259 259 258 257 256 254 255 255 256 257 258 258 258 258 258 257 257 256 255 254 254 254 254 254 255
264 263 262 262 262 261 262 262 262 262 262 262 262 262 263 263 263 262 264 263 261 261 261 262 263 263 264 264 264 264 265 265 266 266 265 265 263 261 261 261 261 261 260 260 261 261 261 262 261 260 260 261 263 265 265 263 262 262 262 262 261 259 257 256 257 257 258 258 258 258 259 259 259 259 259 258 258 256 255 255 254 253 254 254 254
263 263 262 262 261 261 261 261 261 261 260 261 261 262 263 261 261 261 261 261 260 260 260 260 261 262 263 264 264 264 264 265 265 265 264 264 264 262 261 260 260 260 260 260 260 261 261 261 260 259 260 262 264 264 262 260 261 262 262 261 259 257 257 258 257 257 258 258 258 258 258 258 258 258 258 258 258 256 255 255 254 253 252 253 253
263 262 262 262 261 261 260 259 260 261 261 261 261 261 261 261 261 262 261 261 261 260 261 261 261 262 262 263 264 264 265 265 264 264 264 263 264 264 262 260 260 260 260 261 261 261 261 260 260 259 261 262 262 261 260 260 260 260 259 258 257 256 257 257 258 257 256 257 258 258 258 258 257 257 257 257 256 255 254 253 253 252 252 252 252
263 263 262 261 261 260 260 261 260 260 261 261 261 262 260 260 261 262 261 261 261 261 262 262 261 262 262 263 263 264 264 264 265 264 263 263 263 263 262 261 260 259 259 260 260 261 259 259 259 260 260 260 259 258 258 258 258 258 258 257 256 258 258 258 257 257 257 257 257 257 257 258 257 256 256 254 253 253 254 255 254 253 253 253 252
262 262 261 260 260 259 259 259 258 259 260 261 261 262 262 261 261 262 261 261 261 261 261 262 261 261 262 262 263 263 263 263 264 264 263 263 263 263 262 261 260 259 259 260 258 258 259 259 259 258 258 258 259 258 258 258 257 257 256 255 256 258 258 257 257 257 257 257 256 256 257 257 257 256 254 253 254 256 256 255 255 256 256 256 256
261 261 261 260 259 258 259 262 262 259 259 261 262 262 262 262 261 261 262 261 261 261 261 261 261 261 261 262 262 262 262 263 263 263 264 264 263 263 262 261 260 259 259 259 259 259 259 259 259 258 258 257 257 256 256 256 256 257 257 257 257 257 257 257 256 256 256 256 256 257 257 257 256 255 256 256 255 256 256 254 254 255 255 255 254
262 262 260 261 261 260 260 258 259 262 261 260 261 261 262 262 261 261 262 262 261 261 261 261 261 261 261 262 262 262 262 262 263 263 263 263 263 263 262 261 260 260 260 260 260 259 259 257 257 257 258 257 258 258 258 258 257 257 258 257 257 256 254 254 254 254 255 256 255 255 255 256 256 256 256 255 256 256 256 254 254 254 255 254 253
259 259 259 260 261 260 261 261 261 262 261 261 261 262 262 262 261 262 263 263 263 262 262 262 262 262 262 262 261 261 262 261 262 264 263 264 263 263 262 261 261 261 260 259 257 257 257 258 258 258 258 257 258 259 259 258 258 257 255 256 257 257 256 257 257 257 257 255 255 255 255 256 256 256 255 255 256 256 256 255 255 254 254 254 253
260 260 260 260 260 260 260 260 260 260 261 261 261 261 259 260 261 261 261 261 261 261 262 261 262 262 262 262 263 262 262 263 264 263 263 262 262 262 262 261 260 260 259 258 258 258 258 258 259 259 259 259 259 259 259 258 257 258 258 256 256 256 256 256 257 256 255 255 255 255 255 255 255 255 255 255 255 256 255 254 253 254 253 253 254
261 261 260 261 260 260 260 260 261 261 261 260 261 260 261 261 261 261 261 261 261 261 261 262 262 262 262 261 262 263 262 262 262 262 263 263 262 261 261 260 259 259 258 257 257 258 258 258 259 259 258 258 258 258 258 257 257 257 257 257 257 256 255 256 257 255 254 255 255 255 255 254 254 255 254 254 254 254 255 255 255 254 254 254 254
262 262 262 261 258 258 260 260 260 260 260 260 260 260 261 261 262 262 261 261 261 261 261 262 262 262 262 262 261 262 262 262 262 262 262 263 262 262 261 261 260 259 258 259 258 258 259 259 259 259 259 258 258 257 257 257 257 256 256 256 257 257 256 256 255 253 254 254 254 254 254 254 254 254 253 253 252 253 254 255 255 254 254 254 254
258 260 260 259 259 258 258 259 260 260 259 259 260 260 260 260 260 261 262 262 261 261 261 262 262 262 262 263 263 262 262 262 262 262 262 263 263 262 261 261 261 260 259 258 257 258 259 258 258 259 259 258 259 258 257 256 256 256 256 256 256 256 256 254 251 252 253 253 253 254 254 254 253 253 252 253 253 253 254 253 254 254 254 253 254
256 258 259 259 259 260 260 260 260 260 260 260 260 260 260 260 260 260 259 260 261 261 261 261 261 262 262 262 263 263 263 263 262 262 262 262 263 262 262 261 261 260 259 258 258 258 259 259 258 258 258 258 258 257 256 256 256 256 255 255 255 256 255 253 253 253 254 254 254 254 253 253 253 252 253 253 253 253 253 253 253 253 253 253 252
256 255 253 254 258 259 260 260 259 259 259 259 259 259 259 259 259 258 258 258 259 259 260 261 262 261 261 262 262 263 263 263 263 262 262 262 262 262 262 260 259 259 259 258 258 258 258 258 258 258 258 258 257 257 257 256 256 256 256 256 256 256 255 255 254 254 254 254 254 254 253 252 252 252 252 252 252 252 252 252 252 253 252 252 251
255 257 258 256 257 259 259 259 259 259 259 259 259 259 258 258 258 258 258 258 258 258 259 260 261 261 261 261 262 262 262 263 263 262 262 262 262 262 260 259 259 259 258 258 258 258 258 258 259 259 259 258 258 257 257 256 256 256 256 255 254 255 255 255 254 254 253 253 253 252 252 252 253 252 252 252 251 251 252 252 252 252 251 251 251
257 258 258 258 258 258 258 258 258 258 257 258 258 258 258 258 258 258 258 258 257 258 258 259 259 259 260 259 260 261 262 262 262 263 262 262 262 262 261 260 260 260 259 259 259 258 258 258 258 258 258 257 257 257 257 256 256 255 254 254 254 253 254 254 254 252 252 253 253 253 252 252 252 251 251 250 251 251 251 251 251 251 250 250 249
255 256 257 257 256 257 257 258 258 255 257 257 258 258 257 257 257 257 257 257 257 257 257 258 258 258 258 259 261 260 261 261 262 262 262 262 261 261 261 260 260 260 259 260 259 259 258 259 258 258 258 258 257 257 256 255 255 255 255 254 254 254 251 251 251 251 251 251 252 253 252 252 252 252 251 250 250 251 251 251 251 250 250 250 251
256 253 252 253 254 257 258 257 257 257 257 257 257 257 256 257 257 257 257 257 257 257 257 257 257 258 258 259 260 260 260 259 259 259 260 261 261 261 261 261 260 260 260 260 259 258 258 258 258 258 257 257 256 256 255 255 255 255 254 254 254 254 253 254 254 253 253 253 254 254 253 253 253 252 252 251 250 251 250 250 250 250 250 250 251
255 256 255 253 255 256 256 256 257 257 256 257 257 257 256 256 256 256 256 256 256 256 257 257 257 257 258 259 258 259 258 258 259 260 260 260 260 261 261 260 260 260 259 259 259 258 258 258 258 258 257 256 256 255 255 255 255 254 254 253 253 253 254 254 254 254 253 253 253 253 253 252 252 252 251 251 251 251 251 250 250 250 250 250 250
255 256 254 254 255 256 256 256 256 256 257 256 257 256 256 256 256 256 256 256 256 256 256 256 257 257 258 257 258 258 258 258 259 259 259 259 260 260 260 260 260 259 259 259 258 258 258 258 258 257 257 256 256 255 255 254 254 254 253 253 253 252 253 253 253 253 253 252 252 252 252 252 252 251 251 252 251 251 251 251 251 251 251 251 250
254 255 256 256 255 256 256 256 256 255 255 255 256 256 256 256 256 256 255 255 255 255 256 256 257 257 257 257 257 257 257 258 258 258 259 259 259 259 259 260 260 260 259 259 259 258 258 257 257 257 256 256 255 255 254 254 253 253 253 253 253 253 253 254 254 253 252 252 252 252 252 251 251 251 250 250 251 251 251 251 251 250 250 250 250
253 254 255 255 255 255 255 256 256 255 255 255 255 254 255 255 255 255 255 255 255 255 255 255 256 257 256 256 256 256 257 257 255 257 258 258 258 258 259 259 259 259 259 259 259 258 258 257 257 257 256 256 255 255 255 255 254 254 254 253 253 253 253 253 253 253 253 253 252 251 251 251 251 252 252 251 251 251 250 250 250 250 250 250 250
253 254 254 254 254 255 255 255 255 255 255 254 254 255 255 255 255 255 255 255 255 255 255 255 256 256 256 256 255 256 256 257 257 257 257 257 258 258 258 258 258 258 258 257 257 257 257 256 256 256 255 255 254 253 254 254 254 253 253 253 253 252 253 253 253 253 253 253 252 251 251 251 251 251 251 251 251 250 250 250 250 250 250 250 249
253 254 254 254 254 254 254 254 254 254 254 254 254 255 255 255 255 255 255 255 255 255 255 255 256 256 255 256 256 256 256 256 256 256 256 257 257 257 258 257 257 257 257 256 256 256 255 255 255 255 254 254 254 253 252 253 252 253 253 253 253 253 253 253 253 253 252 251 251 251 251 251 251 251 251 251 250 249 249 249 250 248 248 248 249
253 253 253 253 253 253 253 254 253 254 254 254 254 254 255 255 255 254 255 255 255 255 255 255 255 255 255 256 256 255 256 256 256 256 256 256 256 257 257 257 257 256 256 256 256 255 255 255 254 254 254 254 253 253 253 252 251 251 251 252 252 252 253 253 252 252 251 250 250 250 251 250 250 250 249 249 249 249 249 248 248 248 248 248 248
252 253 253 253 253 253 253 253 253 253 254 254 254 254 254 254 255 254 254 254 254 254 255 255 255 255 256 255 255 255 255 255 255 256 256 256 256 256 256 256 256 256 256 255 255 254 253 253 253 253 252 253 252 251 252 252 253 252 252 252 252 251 251 252 251 251 250 250 250 250 249 249 249 249 249 249 249 249 248 248 248 248 248 248 248
252 252 253 252 252 252 253 253 252 251 253 253 253 253 253 254 254 254 254 254 254 254 255 255 255 255 255 255 256 255 255 255 255 255 256 256 256 256 255 255 255 255 255 255 254 253 253 253 252 252 251 251 250 251 252 252 252 252 252 252 252 251 251 249 250 249 250 250 249 249 248 248 248 248 248 248 248 248 247 248 248 249 248 248 248
252 252 252 252 252 252 252 252 252 253 253 253 253 253 253 253 253 254 254 254 254 254 255 255 255 255 255 255 255 255 255 255 255 255 255 255 255 255 255 254 253 254 254 254 254 253 252 252 251 251 251 251 251 251 251 251 251 251 251 251 251 248 247 247 247 249 249 249 249 249 248 248 248 247 247 247 247 248 248 248 248 248 248 248 248
252 251 252 252 252 252 252 252 252 252 252 253 253 253 253 253 253 253 254 254 254 254 255 255 255 255 255 255 254 255 255 254 255 255 255 255 255 255 254 254 253 253 253 253 253 253 252 252 250 250 250 250 250 250 250 251 251 251 251 251 249 247 247 246 246 247 247 249 249 250 249 249 248 248 248 248 248 248 248 248 248 248 248 248 248
251 251 251 252 252 252 252 252 252 252 252 252 252 252 252 253 253 253 253 253 253 254 254 254 255 255 255 255 254 255 254 254 255 255 254 254 254 254 254 253 253 252 252 252 252 252 251 251 251 250 250 249 250 250 250 251 251 251 249 248 247 247 246 247 248 248 247 247 249 249 249 248 248 248 248 249 249 248 248 247 247 247 248 248 248
Wind_Speed
3 3 3 3 2 1 1 1 1 1 2 1 2 2 2 3 3 3 3 3 4 4 4 4 4 3 3 4 5 5 5 5 4 4 4 4 4 5 5 5 5 4 5 5 6 6 5 5 6 6 6 6 5 4 5 5 5 3 3 3 2 3 3 2 1 2 2 1 1 1 2 3 3 4 5 4 5 6 7 6 7 7 7 7 7
3 3 2 2 3 2 2 1 1 1 2 2 3 2 2 3 3 3 3 2 2 3 3 3 3 3 3 4 4 5 5 4 5 4 4 4 5 4 5 5 5 5 5 5 6 5 5 6 6 6 6 5 5 5 5 5 5 5 4 4 4 3 4 2 1 2 1 2 0 1 1 2 2 4 4 6 6 6 8 7 5 6 6 6 6
3 3 3 3 3 3 3 2 1 1 1 2 2 2 2 2 3 2 2 2 2 2 2 2 2 2 3 5 5 4 4 4 4 4 4 4 4 5 5 5 5 5 5 5 6 5 5 5 6 6 5 6 6 5 5 5 4 4 5 4 4 4 4 4 1 1 3 1 1 2 2 2 3 4 5 4 4 4 6 6 6 6 5 6 5
4 3 3 3 3 3 3 2 2 1 1 2 2 2 2 2 2 2 2 2 2 1 1 1 1 2 3 5 5 4 4 4 4 4 4 4 4 5 5 5 5 5 5 5 5 5 6 5 6 6 6 5 6 5 6 6 5 4 5 4 4 5 4 4 4 1 2 2 2 1 3 2 2 3 4 4 3 3 4 5 5 5 6 5 4
4 3 4 4 4 3 3 3 2 1 1 1 2 2 2 2 2 1 2 1 1 1 1 2 3 3 4 4 4 4 4 4 4 4 4 4 4 4 5 5 5 5 5 5 5 5 6 5 5 6 6 5 6 6 6 7 6 5 5 5 4 4 4 4 4 3 2 3 2 1 1 2 2 2 5 5 4 3 3 4 4 5 6 6 3
5 4 5 4 3 3 2 2 2 1 1 1 1 1 1 1 1 0 0 1 1 1 3 3 4 4 4 4 4 4 3 3 3 3 3 3 4 5 4 5 5 5 5 5 5 5 5 6 6 6 6 6 5 5 5 6 6 5 6 5 5 4 5 5 4 4 4 3 2 1 1 3 3 2 5 5 5 5 5 5 3 4 6 6 4
5 4 5 4 3 3 3 2 2 2 1 1 1 1 0 0 0 1 0 1 1 2 3 3 4 4 4 3 3 3 3 2 2 2 3 3 4 4 5 5 5 5 5 5 5 5 6 6 7 7 7 6 5 5 6 5 4 5 5 5 5 4 4 4 4 4 3 2 2 2 2 2 3 4 5 5 3 3 7 7 5 5 5 6 6
5 4 4 4 3 3 3 2 2 2 1 2 2 1 1 1 1 1 0 1 2 3 3 3 3 3 3 3 2 2 2 2 2 2 2 2 3 3 4 4 4 5 5 5 5 5 6 7 7 7 7 7 6 6 6 4 4 4 5 4 4 4 3 3 2 2 2 3 3 2 2 2 3 4 4 5 5 4 6 6 7 8 8 7 6
5 4 4 4 4 4 4 3 3 3 3 3 3 2 2 1 1 0 1 2 2 2 2 2 3 2 2 2 2 2 2 1 1 0 1 2 2 4 4 4 4 4 4 5 5 5 5 6 7 7 8 9 11 10 9 8 5 4 5 5 5 4 4 3 2 2 3 2 3 2 2 3 4 5 5 6 7 6 6 6 6 6 7 8 5
6 5 5 6 5 4 4 4 3 3 3 4 3 3 2 2 1 0 1 1 2 2 2 2 2 2 2 2 2 1 1 1 2 2 1 1 3 3 3 3 3 3 3 4 5 5 6 5 6 9 9 10 10 11 11 12 12 9 6 6 5 5 4 4 4 4 3 3 4 4 4 4 5 5 5 6 5 6 7 7 7 7 7 7 3
7 7 7 6 5 6 5 5 5 4 4 3 3 3 2 1 0 0 0 1 2 2 2 2 2 2 2 2 2 1 1 2 5 5 5 5 3 2 3 3 3 4 3 3 3 4 4 4 4 6 7 7 7 10 11 11 12 13 14 14 12 7 5 4 5 5 4 3 3 4 4 4 5 5 5 6 6 7 6 6 6 7 7 8 7
8 8 7 5 6 7 6 6 5 4 4 4 3 2 2 1 1 1 1 1 2 1 2 2 2 2 2 2 2 2 2 5 8 5 6 7 4 3 3 3 2 3 3 2 2 3 3 3 3 3 4 5 4 5 8 9 10 11 12 12 12 13 12 8 5 5 5 4 4 4 4 5 5 5 6 6 7 7 6 6 5 6 6 5 6
6 6 5 5 5 5 5 5 5 4 3 3 2 2 2 1 1 1 1 1 2 2 2 2 2 2 2 2 2 3 3 6 9 6 7 7 6 4 2 2 2 3 2 2 1 1 2 3 3 3 3 5 5 4 4 5 7 9 9 9 11 11 10 10 10 6 4 4 4 4 5 5 6 5 6 6 6 7 6 5 5 5 5 6 6
5 4 4 4 4 4 4 4 3 3 2 2 2 2 2 2 2 2 2 1 2 2 3 3 2 2 2 2 3 3 3 7 9 6 9 7 7 5 3 3 4 3 2 1 1 1 1 2 3 3 3 3 3 3 3 3 3 4 4 4 5 7 9 8 7 7 6 4 4 4 5 5 5 7 5 4 5 6 6 7 6 6 6 7 10
4 4 4 4 4 4 4 3 3 3 3 3 3 2 3 3 2 2 2 2 2 2 1 2 2 2 2 2 2 3 4 8 9 6 9 8 8 7 3 3 3 3 2 2 2 2 2 2 3 3 3 3 3 2 2 2 2 2 3 3 3 3 4 6 6 5 4 4 3 3 4 5 6 5 1 1 1 3 4 7 7 6 9 11 10
4 4 4 4 4 4 4 5 4 4 4 3 3 3 3 3 3 3 2 3 2 2 2 2 2 2 2 2 3 3 4 8 8 5 11 11 10 4 4 3 3 3 2 1 0 1 1 1 1 2 3 3 2 1 0 1 1 2 2 2 2 1 2 5 7 6 5 4 4 3 3 5 7 7 1 2 2 3 6 6 5 6 8 7 5
4 4 4 5 4 5 4 4 4 4 4 3 3 4 4 3 3 3 3 3 2 2 2 2 2 2 2 2 2 4 4 7 9 6 14 12 7 4 4 3 3 3 2 2 2 1 1 0 1 1 1 1 1 2 2 2 1 1 2 2 2 2 1 3 8 9 9 8 8 7 7 8 9 9 10 7 5 5 6 6 3 6 6 8 7
3 3 4 4 4 4 4 5 5 4 4 4 5 4 3 2 3 3 3 3 3 2 2 2 2 2 2 3 2 3 4 5 10 9 13 11 6 4 3 2 3 2 2 2 1 3 2 3 2 1 2 2 5 6 6 4 1 0 2 3 4 2 1 2 2 3 7 7 7 8 5 6 7 8 7 7 7 6 4 4 5 5 5 5 7
3 4 3 3 4 4 4 5 5 4 4 5 5 4 4 4 3 3 3 3 3 2 2 2 2 2 2 2 4 4 5 5 7 12 10 10 6 3 3 2 3 3 3 3 2 2 3 4 4 4 3 5 8 10 11 6 2 1 2 4 4 3 2 3 4 5 5 5 4 5 3 3 3 2 2 4 3 1 1 3 3 4 5 6 6
2 2 2 3 3 4 4 4 5 5 6 6 5 4 2 3 4 3 3 3 3 2 2 2 2 2 2 2 3 3 2 3 6 8 8 6 6 3 2 3 3 3 3 3 3 3 3 3 4 5 6 6 9 11 7 10 2 1 2 4 4 4 3 3 3 3 4 3 5 4 5 4 3 3 4 3 3 4 3 2 3 3 4 5 5
2 2 3 3 3 4 4 4 5 5 5 4 3 3 3 4 3 3 3 3 3 2 2 2 2 3 2 2 2 2 2 3 4 5 6 5 7 5 3 3 2 3 3 2 3 3 3 3 3 3 4 7 8 12 4 5 4 2 3 3 3 2 2 4 3 3 4 5 5 5 4 3 3 3 3 3 2 2 2 2 2 3 4 5 6
2 2 2 3 3 2 3 3 4 4 4 3 3 3 4 3 3 3 3 3 2 2 2 3 3 3 2 3 3 3 3 3 4 6 5 5 6 6 3 3 2 2 3 3 3 3 3 2 2 2 3 7 10 3 6 5 2 2 3 0 1 3 3 3 3 4 4 4 4 4 4 3 3 3 3 3 2 0 2 3 3 3 4 5 6
2 2 2 2 2 2 2 4 4 3 3 4 4 4 4 3 3 3 3 2 3 3 3 3 3 4 4 4 4 3 3 4 5 5 6 6 6 6 5 2 5 3 3 3 3 3 2 2 1 1 4 7 4 3 5 4 3 2 4 4 2 2 2 3 2 4 4 5 5 4 4 3 4 4 4 4 4 3 4 4 5 5 6 7 9
3 2 2 2 2 2 2 3 3 4 5 3 4 4 4 3 3 4 3 4 3 4 4 4 4 5 5 5 4 4 5 5 5 5 5 6 6 7 7 6 7 4 3 2 2 2 2 2 1 1 3 5 3 4 5 4 3 3 3 1 1 2 3 2 3 4 4 4 4 5 4 4 3 4 5 5 6 6 6 6 6 7 8 8 9
2 2 2 1 1 2 2 3 3 4 4 5 5 4 4 4 4 4 4 4 4 4 5 4 5 5 5 5 5 5 5 4 4 5 6 6 7 7 6 7 7 5 3 2 1 1 1 2 2 3 2 3 4 4 3 2 2 2 2 1 3 3 3 3 3 4 5 5 5 5 5 4 4 5 4 5 7 7 6 5 6 7 8 9 11
2 2 2 1 2 2 2 2 2 2 3 4 5 4 4 5 5 5 5 5 5 5 5 5 5 5 5 5 5 5 5 5 5 4 5 6 6 7 7 7 6 6 3 1 1 2 3 3 1 1 2 3 3 2 2 2 2 2 2 2 3 3 3 3 4 4 4 5 5 5 5 5 5 5 5 5 5 5 5 6 7 6 5 6 9
1 1 2 2 2 2 3 3 3 3 4 4 4 4 4 5 5 5 5 5 5 6 6 5 5 6 6 6 5 5 5 6 6 5 5 5 5 6 6 5 6 5 3 2 4 3 3 2 0 1 3 4 4 3 3 3 3 4 3 3 3 3 3 3 3 4 5 5 5 5 6 6 6 5 4 4 5 5 4 5 6 7 6 6 7
1 1 1 1 1 2 3 2 3 3 4 5 5 5 5 6 6 6 6 6 6 6 6 6 6 6 6 6 5 6 6 7 7 7 6 6 5 5 5 4 5 4 4 3 3 2 2 2 1 3 3 3 3 4 3 3 2 2 3 3 3 2 2 4 4 5 5 4 5 5 6 5 5 5 5 5 5 5 4 4 6 7 6 7 7
1 1 1 1 2 2 2 3 3 4 4 4 6 6 6 6 6 7 7 6 6 6 5 6 5 5 5 5 6 6 7 8 8 8 7 8 6 5 5 5 4 4 3 5 3 2 2 3 3 3 3 3 3 4 3 3 3 3 3 4 3 3 3 3 4 4 3 3 5 5 6 6 6 5 5 6 5 5 4 5 6 6 7 5 8
1 1 1 1 1 2 2 2 3 3 4 4 5 5 7 8 6 5 6 6 8 8 8 7 5 4 5 7 7 7 7 7 6 10 11 10 9 8 6 5 5 3 6 8 4 3 3 3 3 3 3 3 3 3 3 3 3 3 3 3 3 3 3 3 4 3 2 4 4 5 5 6 6 6 6 6 7 5 5 4 6 5 6 7 8
1 1 1 2 1 1 2 2 3 3 4 4 4 5 5 6 11 14 11 9 8 10 12 14 13 11 8 6 7 10 11 8 5 9 11 12 12 12 10 8 8 7 9 6 4 4 4 4 4 3 3 3 4 3 3 3 4 3 3 3 3 3 3 3 3 2 2 4 4 5 5 5 6 6 6 7 7 7 6 5 5 5 6 7 9
2 1 1 1 1 2 2 2 3 4 4 4 5 5 5 5 5 9 13 12 12 12 12 13 13 13 14 12 9 6 9 12 12 11 11 13 13 13 13 11 10 10 11 8 4 5 5 5 5 4 3 3 4 3 3 3 4 4 4 4 4 2 2 3 1 2 4 4 5 4 5 5 6 6 6 7 5 7 6 6 5 6 7 7 8
3 3 2 2 2 2 3 3 4 4 5 5 5 5 5 5 5 5 4 10 12 11 12 12 13 13 13 14 15 12 10 8 10 12 12 13 13 14 13 13 12 12 11 7 6 6 6 5 5 4 3 4 4 3 3 3 4 4 4 4 4 3 3 1 1 3 4 4 5 5 5 5 5 4 5 5 5 7 7 7 7 6 7 8 8
3 3 3 3 3 3 3 4 4 4 4 4 4 4 4 4 4 4 4 4 4 8 11 13 13 13 13 14 13 13 14 13 12 12 12 13 13 14 13 10 13 15 13 8 8 8 7 6 5 5 4 4 4 3 4 4 4 4 4 4 4 4 3 1 3 3 4 3 4 5 5 5 3 6 6 6 6 6 7 6 7 8 7 8 9
3 4 4 4 4 4 4 4 4 4 4 4 4 4 4 4 4 4 4 4 5 5 4 5 9 13 10 9 11 13 13 13 13 12 12 13 13 13 13 8 8 9 9 8 8 7 7 7 7 6 4 4 4 4 4 4 4 4 4 4 4 3 3 3 3 3 3 4 4 5 4 5 5 4 5 6 6 7 7 8 7 7 8 8 9
2 3 3 3 4 4 4 4 4 4 4 4 4 3 3 3 3 4 4 5 5 5 6 5 4 4 7 8 9 11 11 11 12 13 13 13 12 12 10 9 8 8 8 8 8 8 6 7 6 7 5 4 4 4 4 4 4 4 4 4 4 4 4 4 3 3 3 4 4 5 5 5 5 5 5 6 6 7 7 8 8 8 8 8 8
3 3 3 2 3 3 4 4 4 4 3 2 3 4 3 3 3 4 3 5 5 5 5 5 4 5 6 5 6 8 10 12 12 13 13 12 13 10 9 9 8 8 7 8 7 7 7 7 7 6 4 4 4 4 3 4 4 4 4 4 4 4 4 3 4 3 4 5 5 5 5 5 5 5 5 6 7 7 7 7 8 8 7 9 10
3 3 3 3 3 3 4 4 3 3 3 4 4 4 4 4 4 4 4 5 5 5 5 5 5 5 5 5 4 5 6 9 11 11 11 11 9 9 9 9 9 8 7 7 6 6 6 7 5 6 5 4 4 3 3 3 4 4 4 3 4 4 3 4 3 5 5 5 5 5 4 5 4 4 4 6 7 8 8 7 7 9 9 9 8
2 2 4 4 4 4 3 4 3 3 3 4 4 3 3 4 4 4 5 5 5 5 4 5 5 5 5 4 4 4 5 6 7 8 8 8 8 8 8 8 8 8 7 6 5 5 6 6 5 5 4 4 3 3 3 4 4 4 3 3 4 4 4 4 4 4 4 5 5 4 4 4 4 4 5 6 7 7 8 8 8 7 10 11 10
4 4 2 3 3 3 3 2 3 3 3 4 4 4 4 4 4 4 5 5 5 5 5 5 5 5 5 4 5 5 5 6 7 7 7 8 7 7 7 7 7 7 7 6 6 5 4 5 5 4 3 3 3 3 3 3 3 3 3 3 4 4 4 4 4 4 4 4 5 5 5 5 5 5 6 6 7 7 7 9 9 10 11 11 13
4 4 4 3 3 3 3 3 3 4 4 3 4 3 4 3 4 3 4 5 5 5 5 5 5 5 5 4 7 6 6 6 6 7 6 7 7 7 7 7 7 6 6 6 6 4 4 4 4 3 3 3 3 3 3 3 3 3 4 3 4 4 5 5 5 5 5 5 5 5 5 5 5 6 7 6 6 9 10 10 11 11 12 12 11
4 4 4 3 2 3 3 3 2 2 4 3 4 4 3 3 4 4 4 5 4 4 5 5 5 5 5 7 8 9 7 7 6 5 6 6 6 6 6 6 6 6 6 6 4 4 4 4 4 3 3 3 3 3 3 3 3 4 4 4 4 4 5 5 4 4 4 5 5 5 5 6 6 7 8 9 9 9 10 11 11 11 11 12 12
4 4 3 2 3 3 3 3 3 3 3 4 4 4 4 4 5 4 4 4 5 5 5 5 5 5 5 6 6 7 7 7 6 6 6 5 5 5 5 5 5 5 5 3 3 3 3 3 3 3 3 4 3 3 3 3 3 3 4 4 4 4 5 5 5 4 4 4 5 5 6 7 8 7 7 7 9 10 10 11 10 11 11 12 13
4 3 2 3 3 3 2 3 4 3 4 4 4 3 3 4 5 5 5 5 5 5 5 5 5 5 5 3 4 5 6 6 6 6 6 5 5 5 5 5 4 4 3 3 3 2 3 3 3 3 3 3 3 3 3 3 3 4 4 4 4 4 5 5 5 4 4 5 5 6 7 7 9 9 9 9 9 10 11 11 11 10 11 12 13
4 4 4 4 3 3 3 3 3 4 3 3 4 4 3 5 5 5 5 5 4 4 5 5 5 5 4 5 5 5 5 6 5 5 5 6 5 5 5 4 4 4 4 3 3 3 3 3 3 4 3 3 3 3 3 4 4 4 4 4 5 5 5 4 4 4 4 5 6 6 7 8 9 10 10 10 9 9 10 11 11 12 12 12 13
3 4 3 4 3 2 3 3 2 3 4 4 4 4 4 4 5 5 4 4 4 5 5 5 5 5 4 5 5 3 5 5 5 5 4 5 5 5 4 4 4 4 4 3 3 3 3 3 3 4 3 3 3 3 3 3 4 4 4 4 5 5 5 5 4 4 4 5 5 6 8 10 9 8 9 10 10 9 10 11 10 10 11 12 12
3 3 4 3 3 2 2 3 4 3 4 4 4 4 4 4 4 4 3 4 5 3 5 5 5 5 5 5 5 5 4 5 5 5 5 5 5 5 4 4 4 5 5 4 3 3 3 3 3 4 4 3 3 3 3 3 3 3 4 4 4 4 5 4 4 4 4 4 6 7 8 9 9 9 9 9 10 11 11 11 11 12 12 12 13
3 3 3 3 3 4 4 3 4 3 3 3 4 3 3 4 4 4 4 4 4 4 5 5 5 5 4 5 4 5 4 5 4 4 4 4 4 4 4 4 4 5 5 4 3 3 3 3 3 3 3 3 4 4 4 3 3 3 3 3 3 4 4 3 4 5 5 6 6 7 8 8 8 8 9 9 9 9 10 11 12 12 13 13 13
4 4 4 3 3 4 3 3 2 4 3 3 4 4 3 4 4 4 4 4 4 4 4 4 4 4 4 4 4 4 4 3 4 4 4 4 4 4 4 4 4 4 4 4 3 3 3 3 3 3 3 4 4 4 3 4 4 4 4 4 4 5 5 5 5 6 6 7 7 8 8 8 8 8 8 8 9 9 10 11 10 11 12 12 12
4 4 4 4 3 4 3 3 4 4 3 3 4 4 4 4 4 4 4 4 4 4 4 4 4 4 4 4 3 4 4 4 4 4 4 3 3 3 3 3 4 4 3 3 3 2 2 2 3 3 3 4 3 3 4 4 4 4 3 4 5 4 4 6 8 9 7 7 7 7 8 8 8 9 9 9 9 10 10 10 11 10 11 12 12
3 4 3 4 4 4 4 4 4 4 3 4 4 4 4 4 4 4 4 4 4 4 4 4 4 4 4 4 3 4 4 4 4 3 3 3 3 3 3 3 3 3 3 3 2 2 2 2 2 3 3 3 3 4 4 4 3 3 5 6 5 6 7 7 6 7 8 8 7 8 8 8 8 9 9 9 9 10 11 12 12 11 12 12 13
Wind_Direction
118 127 128 139 145 171 181 224 207 137 107 114 94 77 59 47 38 26 29 23 11 2 4 356 1 2 1 17 22 17 12 2 352 359 25 30 26 29 24 28 30 30 37 26 28 26 28 23 16 7 357 349 356 348 359 346 341 341 350 338 358 12 6 341 129 136 120 120 271 330 2 7 335 23 352 339 343 347 346 348 348 348 345 343 342
139 136 145 141 157 166 187 215 235 147 132 105 86 73 58 51 33 25 24 26 11 350 352 359 8 4 21 29 25 19 5 358 359 8 25 30 35 34 25 31 42 42 43 30 29 23 21 27 13 1 0 357 350 356 354 351 353 357 0 4 3 13 1 352 86 142 191 147 218 97 37 351 341 5 2 344 343 348 345 349 349 348 343 341 342
136 143 151 159 166 177 189 194 174 186 151 113 75 70 60 51 36 22 15 18 18 8 8 6 3 1 34 35 32 15 355 0 15 18 26 34 36 37 31 29 36 35 33 29 26 19 19 23 12 358 357 3 1 2 355 350 353 11 359 5 11 8 7 2 337 106 151 92 82 322 21 357 357 345 349 346 334 335 334 346 345 340 340 342 343
142 150 150 160 165 170 170 164 178 185 130 83 84 58 48 38 33 17 356 19 358 12 23 348 0 24 35 37 29 7 0 6 15 27 29 31 41 43 37 37 39 38 35 29 25 26 25 23 14 2 355 6 3 3 7 354 359 0 5 5 18 11 4 16 1 66 145 143 67 40 343 356 343 352 348 334 327 329 333 332 334 334 342 344 342
147 158 162 162 172 178 171 169 161 145 82 73 77 59 42 33 31 1 347 4 327 355 354 24 31 35 39 29 21 14 7 4 13 23 32 44 47 51 52 52 49 48 45 39 35 36 33 35 12 6 3 9 13 14 4 359 0 9 6 15 20 19 22 28 34 45 87 99 104 79 358 324 319 342 1 350 338 337 330 329 325 332 341 339 328
152 156 174 170 174 179 176 168 151 139 119 97 93 78 49 28 326 341 328 286 285 44 22 20 35 33 37 28 23 16 15 16 25 33 39 51 67 71 63 63 58 55 51 46 44 42 45 39 26 22 20 21 11 358 355 353 358 12 13 11 16 25 37 38 46 54 74 87 92 77 45 10 345 24 22 357 350 348 353 346 326 339 343 342 341
155 161 183 181 171 186 178 171 160 159 152 111 91 116 168 208 277 242 288 290 0 23 32 31 26 35 32 32 27 19 11 7 15 37 56 63 69 67 72 71 66 63 55 54 51 49 45 41 38 35 29 22 11 357 341 347 7 9 16 2 11 22 39 47 43 47 50 54 54 36 14 15 11 356 3 352 346 6 1 347 348 350 347 344 330
151 162 177 186 182 183 184 164 157 149 138 146 150 159 188 206 229 257 240 13 35 33 28 32 21 34 31 26 20 12 8 2 9 19 27 64 77 72 73 76 77 70 60 50 46 48 49 45 43 38 37 30 22 10 1 350 359 22 16 10 9 17 39 41 32 40 44 29 21 15 7 7 9 10 356 3 9 9 14 353 338 338 337 333 318
161 165 184 199 202 186 171 168 166 161 164 165 166 179 186 196 242 299 6 20 26 35 38 35 28 30 30 27 14 2 348 345 331 323 84 88 84 86 74 80 88 84 72 60 50 40 42 51 45 46 46 44 44 42 34 24 359 19 19 11 6 24 22 17 23 25 28 26 17 11 5 19 17 5 6 10 10 352 341 341 328 328 325 320 319
175 183 196 204 189 167 171 172 168 171 177 179 181 180 185 203 185 351 54 29 20 33 29 43 25 21 11 3 350 330 334 331 257 236 198 126 111 107 107 95 92 91 87 78 60 51 43 47 46 43 42 44 44 43 44 45 44 40 23 10 12 25 26 16 20 16 12 24 20 359 8 16 13 6 2 359 350 340 340 344 338 334 329 318 298
185 191 201 196 169 172 179 180 175 181 182 182 176 175 177 194 211 176 311 42 11 352 37 358 4 359 346 340 328 309 265 243 230 193 157 138 118 110 104 98 92 88 84 78 80 70 62 54 57 45 38 36 43 47 48 47 50 51 50 48 42 32 12 22 33 22 10 21 18 8 10 3 4 358 1 348 346 346 339 335 333 337 346 346 338
188 196 195 165 170 180 185 178 182 179 180 184 178 184 193 195 244 272 322 344 331 10 349 341 329 325 311 303 288 277 255 243 237 197 152 140 141 122 115 113 102 92 89 81 89 96 82 65 48 41 45 42 41 46 49 51 52 52 52 49 47 46 45 38 16 23 17 13 13 15 357 6 343 356 356 348 342 332 332 329 335 336 330 328 316
177 180 169 167 172 179 175 180 182 177 181 172 175 177 196 218 234 257 271 297 333 322 317 318 308 308 303 299 283 262 251 248 253 201 147 140 136 119 113 100 109 86 86 78 63 56 89 88 72 54 39 43 54 39 44 50 53 56 54 54 50 44 45 49 44 36 11 16 18 9 8 344 336 355 356 338 329 317 321 326 331 320 307 299 300
169 169 162 167 171 173 175 179 178 179 165 173 188 198 204 230 248 269 281 281 285 303 305 298 298 283 279 270 270 262 253 256 260 209 145 136 132 107 77 88 82 96 84 79 94 89 64 102 107 91 67 59 61 32 39 43 37 30 27 29 37 36 36 33 49 42 40 30 24 8 344 335 325 325 339 345 332 324 325 314 319 307 297 285 292
164 162 165 169 169 171 173 182 179 181 182 184 201 214 217 238 231 248 263 263 277 284 277 286 293 277 268 263 270 268 247 249 263 214 149 137 127 120 117 115 118 106 103 65 38 54 53 55 89 105 85 72 80 49 45 36 28 21 15 11 18 19 27 15 20 23 13 20 18 350 325 326 323 330 144 341 267 293 297 283 295 289 279 269 255
161 162 172 179 180 181 175 184 186 185 180 186 205 217 221 230 235 248 262 272 273 286 286 281 285 275 277 255 270 264 253 251 266 218 154 139 127 128 136 135 118 121 114 115 75 127 122 66 104 103 102 103 109 117 84 79 58 28 7 349 342 328 65 9 6 10 13 8 1 348 343 337 336 336 293 193 296 287 284 266 239 271 291 304 325
167 170 183 181 180 180 182 175 181 186 185 189 205 222 226 233 234 242 250 260 272 284 290 284 288 277 270 248 243 276 250 267 271 211 149 135 135 133 149 158 133 136 143 155 176 141 126 312 335 155 158 182 252 239 205 167 89 19 356 321 308 297 42 3 360 6 8 7 6 356 359 353 350 341 344 3 12 347 310 293 322 333 319 331 326
157 174 188 182 179 180 182 178 190 171 185 199 216 228 234 237 227 235 241 255 265 270 277 273 258 246 243 255 239 267 263 268 279 169 138 139 133 146 171 153 147 157 157 194 217 168 194 196 242 245 294 278 285 281 266 217 247 277 298 322 306 302 292 18 339 346 8 357 5 356 346 356 352 345 346 353 3 10 338 325 321 315 320 326 314
173 192 197 177 177 176 179 188 196 186 193 210 219 222 220 223 234 226 234 249 259 265 248 252 258 247 230 257 274 264 274 253 165 141 138 134 136 160 170 159 170 180 179 181 202 203 179 215 216 253 255 280 285 278 288 217 204 205 294 302 314 320 356 357 344 344 350 347 337 348 320 328 332 315 315 322 322 329 304 298 303 315 318 319 313
171 168 145 168 172 179 189 190 194 197 207 212 217 217 221 226 226 224 226 244 248 243 237 243 255 267 258 240 250 242 249 134 148 154 140 138 153 169 181 186 193 180 209 194 191 210 200 219 211 232 267 281 292 294 303 145 145 152 280 306 315 334 7 344 356 338 320 310 304 295 272 271 262 242 228 232 234 239 260 257 290 305 302 304 302
139 162 164 162 171 181 195 198 201 204 204 192 194 203 219 226 217 207 223 236 236 241 234 261 244 253 238 237 236 222 210 146 147 162 152 150 162 165 196 214 200 189 201 206 216 208 210 209 220 194 266 295 295 296 135 112 122 195 252 318 310 359 338 320 338 313 288 287 281 280 281 269 250 243 245 240 235 228 252 250 259 276 280 294 299
157 136 149 165 168 159 183 193 197 201 198 190 183 199 213 218 218 218 233 232 217 229 242 245 242 238 226 220 230 228 212 229 189 170 178 175 179 186 211 201 211 194 212 210 226 224 218 218 206 157 274 295 305 345 93 81 46 320 326 97 5 4 334 305 294 300 297 303 310 303 305 308 313 312 305 296 276 268 295 282 252 248 256 254 260
128 125 130 139 158 178 180 194 199 187 186 191 197 210 204 205 210 218 223 230 226 237 237 240 247 238 230 221 212 214 219 214 198 181 178 199 193 192 207 188 203 213 222 226 223 233 209 206 195 294 284 298 300 50 46 29 308 321 339 2 14 359 286 301 309 299 309 307 302 302 309 317 322 323 322 324 327 323 307 298 282 264 257 247 246
115 126 137 132 158 184 190 178 188 195 195 178 193 207 209 204 203 219 210 218 231 227 234 220 225 228 226 224 215 204 207 216 185 176 191 198 209 204 194 197 189 214 234 243 240 234 207 196 188 226 283 305 345 10 17 360 342 333 330 350 336 282 283 292 290 307 301 296 303 312 316 323 316 316 324 325 316 307 292 277 271 254 246 253 246
128 134 134 151 165 179 177 195 192 194 191 190 199 207 199 193 215 215 203 218 229 232 238 224 221 226 225 224 217 207 206 211 205 185 190 204 209 211 198 196 198 190 216 237 249 227 108 121 198 242 283 318 339 328 296 286 319 319 304 275 285 264 283 294 300 307 303 305 310 309 309 317 317 300 303 304 298 284 273 270 235 235 241 244 248
147 136 126 154 156 156 156 169 193 188 191 200 206 214 208 204 217 222 209 222 225 230 236 229 227 229 230 229 222 215 207 207 213 204 197 205 211 208 203 197 192 199 234 301 144 139 163 197 174 40 286 292 290 289 298 320 320 296 276 288 260 275 276 293 291 293 300 306 306 305 307 311 307 312 296 274 283 298 313 307 313 301 291 292 301
147 141 149 147 150 159 192 214 201 190 197 211 211 217 215 212 216 222 223 223 223 231 231 228 231 229 231 230 226 220 214 213 213 208 205 204 203 191 192 194 185 181 196 183 170 187 181 199 268 353 325 323 295 290 274 273 255 230 228 230 263 269 272 272 296 295 297 299 302 304 307 303 296 290 298 307 300 296 299 302 300 298 304 303 299
210 159 142 168 171 173 213 184 205 215 205 208 217 218 218 216 220 224 227 228 227 230 226 231 231 232 232 231 225 225 223 220 214 209 209 204 208 192 201 190 187 197 191 179 173 161 152 145 193 239 247 250 239 234 228 231 245 254 256 260 256 253 263 273 259 257 259 276 288 287 288 295 303 307 305 295 291 291 286 288 292 296 302 308 299
174 143 172 191 197 180 215 213 224 230 222 218 228 231 226 223 226 238 235 236 237 234 237 241 239 238 235 234 230 231 231 226 223 216 219 220 210 202 194 198 197 200 179 141 126 144 193 231 241 234 236 246 257 257 250 246 247 233 237 256 252 244 246 255 277 287 299 299 297 304 304 305 303 303 298 296 292 294 286 288 284 283 297 284 280
203 206 185 216 195 200 204 200 215 227 233 236 236 244 237 233 241 238 245 228 226 246 250 246 250 246 243 246 238 238 240 252 233 213 217 211 201 202 206 194 184 179 144 153 167 197 212 227 235 237 255 264 275 281 280 280 281 273 256 224 249 257 266 269 269 280 296 293 294 298 300 306 301 304 304 297 299 294 282 262 282 286 290 292 295
236 222 195 229 217 234 224 218 220 234 237 238 245 253 265 236 225 232 241 248 245 238 240 244 247 248 249 253 253 245 252 258 218 214 221 221 217 214 210 193 179 166 155 152 197 217 227 235 241 234 242 255 270 279 290 286 282 283 283 286 274 259 257 262 276 304 297 291 292 289 292 293 296 300 300 300 301 298 298 277 266 272 277 292 294
274 272 241 249 187 217 235 225 235 237 241 238 241 249 253 261 260 223 222 231 236 239 241 242 243 241 241 241 246 258 246 241 241 237 230 223 217 212 212 205 193 179 182 185 218 233 230 245 255 258 253 262 267 270 272 279 283 280 287 289 287 280 283 286 25 323 297 294 293 297 296 295 294 297 294 295 295 293 295 301 300 297 294 289 283
270 276 282 254 238 219 229 229 238 238 237 238 244 241 247 256 260 271 230 216 225 236 241 243 243 245 245 243 241 242 248 250 235 232 232 229 223 216 209 208 204 192 175 197 227 238 239 234 249 255 254 266 272 276 278 273 276 277 277 280 287 290 284 39 58 271 270 272 288 285 289 291 293 293 289 287 293 299 304 302 303 298 294 294 294
272 269 263 257 255 250 233 243 243 245 246 246 247 245 250 251 265 274 275 272 233 227 231 236 243 248 247 247 247 246 241 238 241 238 234 232 228 220 210 213 208 195 189 213 225 241 246 246 239 243 251 255 266 270 270 269 268 271 274 265 266 275 275 235 255 265 278 277 274 283 282 284 293 299 299 300 292 290 294 297 302 303 301 303 302
271 263 242 264 259 256 253 249 247 249 249 246 245 246 250 257 256 257 260 264 269 265 261 239 226 226 237 249 251 249 246 241 235 234 234 233 230 226 212 209 208 205 206 221 231 238 243 247 253 248 238 246 254 258 266 270 271 273 276 281 281 280 282 267 269 274 279 284 281 280 289 294 288 282 289 298 306 305 300 296 295 295 297 299 299
281 280 276 236 246 256 254 249 246 248 250 249 251 252 260 257 253 257 256 253 255 263 267 258 256 251 254 262 259 255 254 249 238 231 231 232 230 222 215 216 215 212 208 213 222 230 235 245 248 256 252 247 253 255 257 264 264 267 278 285 286 288 289 289 285 286 285 281 279 279 280 279 280 288 292 286 277 278 285 291 294 295 291 290 294
294 280 270 262 259 258 255 252 249 252 255 265 260 258 254 251 255 256 256 256 255 259 258 267 264 258 246 242 250 260 256 249 243 234 230 231 229 225 224 222 222 218 217 219 220 223 231 241 244 251 242 250 254 254 259 261 262 261 257 261 273 277 273 286 299 298 291 289 287 285 278 278 280 279 285 292 291 285 283 286 291 288 284 287 292
283 294 294 302 284 260 257 255 251 243 248 247 252 252 255 255 255 252 254 256 258 258 258 261 252 258 256 256 223 227 244 244 244 241 232 229 227 225 226 226 225 225 227 226 223 229 234 243 239 249 246 244 251 255 257 262 259 263 267 265 262 265 267 278 257 252 254 267 271 272 274 280 280 285 281 278 283 291 290 290 290 296 292 289 292
301 240 257 274 267 271 271 266 258 249 248 248 250 248 252 257 256 253 252 253 253 252 256 255 254 251 253 251 247 229 222 234 228 228 223 223 222 222 225 227 226 229 230 232 228 227 238 248 248 245 240 242 241 246 248 261 262 263 268 276 275 277 264 268 272 270 270 275 282 283 283 290 294 288 280 280 280 279 287 289 285 283 299 303 300
314 308 304 286 272 253 256 257 259 254 251 251 252 246 249 249 250 252 255 254 253 256 256 255 256 255 252 249 242 242 234 233 230 227 223 221 220 221 222 226 227 226 226 229 230 233 228 246 247 239 232 232 233 242 249 254 259 266 264 262 272 272 269 272 277 278 280 288 290 291 291 292 292 287 277 268 272 282 288 294 296 296 298 298 301
311 304 295 278 283 285 254 250 248 247 254 249 255 253 252 253 256 257 259 256 261 260 259 259 262 263 259 249 252 253 254 248 240 236 233 229 228 227 228 231 234 234 230 232 232 217 222 235 232 233 239 240 238 239 243 246 253 258 260 261 260 260 271 270 268 271 273 277 279 288 294 290 287 288 286 283 290 294 295 298 298 304 305 302 295
307 304 299 291 264 255 264 260 258 259 256 260 260 257 259 255 256 257 257 261 262 262 266 268 266 265 257 250 249 249 249 251 252 247 240 233 231 234 236 239 239 238 235 236 223 213 218 220 231 232 238 236 232 241 236 243 243 253 256 259 260 268 273 277 277 278 282 284 285 283 290 288 288 285 282 290 296 298 300 301 301 301 298 302 301
303 298 298 296 291 285 286 287 290 281 269 260 258 258 260 265 267 261 258 256 260 263 267 267 271 268 263 250 252 254 248 248 246 245 245 241 237 238 240 240 240 239 236 231 230 224 223 227 232 233 235 237 237 242 245 255 250 255 254 255 262 269 274 280 284 283 283 286 288 288 283 289 292 283 285 298 299 295 295 296 296 301 300 300 305
307 302 299 300 297 296 287 286 285 279 273 280 284 278 269 265 260 256 258 258 255 257 257 261 264 266 268 252 232 240 243 246 241 239 237 237 240 238 240 240 237 235 226 206 210 202 217 227 236 240 233 239 240 232 250 256 251 251 257 263 267 268 273 274 279 287 299 304 302 297 292 290 293 296 299 300 299 296 297 298 300 299 302 304 302
308 304 302 298 295 290 286 284 276 281 282 278 261 257 252 250 255 257 256 257 256 256 259 261 261 261 258 254 247 241 241 241 244 243 242 239 238 238 241 238 235 236 230 213 205 193 206 226 232 242 244 243 227 227 231 235 234 241 249 257 267 272 272 277 289 303 309 296 291 291 291 293 296 300 300 302 299 296 296 298 302 301 299 295 302
311 303 298 295 293 290 288 285 286 279 276 272 269 265 260 255 254 255 256 260 260 262 265 262 261 258 258 256 252 244 244 245 246 243 240 240 240 240 238 238 240 240 237 223 204 192 215 217 231 237 240 243 236 234 234 227 230 233 237 244 252 261 277 285 291 291 281 275 282 286 291 291 287 289 289 292 292 288 289 290 290 290 292 290 290
302 298 298 293 291 293 290 289 284 285 279 269 267 269 268 267 266 264 260 259 269 274 268 265 263 258 256 251 249 248 246 243 244 246 240 240 240 242 239 234 238 242 245 227 208 206 201 215 228 234 241 251 250 239 248 249 240 237 234 240 247 254 261 270 276 273 274 270 275 279 280 285 287 290 287 288 291 294 294 290 291 291 293 296 295
298 295 291 291 289 286 287 286 280 272 266 268 270 274 273 275 270 265 266 263 253 252 257 259 260 259 259 256 251 249 247 247 245 243 244 241 235 234 232 230 233 241 240 238 217 211 222 221 216 224 238 239 240 250 245 249 248 249 252 250 246 251 269 284 281 271 269 279 274 268 268 269 276 279 283 283 282 289 290 292 298 299 299 299 296
293 288 290 293 295 294 292 294 293 288 285 288 283 271 267 268 269 271 268 263 263 264 264 264 264 263 260 258 256 256 251 248 247 244 240 241 237 233 230 230 233 237 243 247 233 212 214 224 218 231 231 243 243 244 252 249 256 254 253 259 259 251 254 249 261 273 281 282 268 264 261 261 260 265 268 268 273 279 282 283 286 289 294 293 292
289 287 286 291 291 290 292 288 287 285 286 281 281 280 278 273 272 270 272 274 274 271 267 266 266 266 266 264 257 255 253 249 247 245 243 243 242 236 233 230 231 234 234 237 240 226 216 219 210 226 231 241 247 246 251 251 252 258 259 261 272 267 261 258 252 257 262 268 265 267 269 273 272 274 276 279 281 280 279 282 288 291 291 290 288
285 284 282 282 287 289 289 286 282 281 281 280 278 277 279 279 279 278 277 275 273 273 274 273 271 269 266 265 262 258 252 252 252 250 248 244 239 236 236 236 227 218 224 235 238 238 223 223 229 225 225 232 236 243 246 249 252 250 264 271 274 270 266 257 266 260 243 254 268 271 266 264 269 275 280 285 290 288 285 290 288 285 288 288 287